SCP
1 0 0 0 0 0 0 0 0 0 0 0 0 0 0 0 0 0 0 1 0 0 0 0 1 1 1 0 0 1 1 1 1 0 0 0 0 0 0 0 0 0 0
1 0 0 0 0 0 0 0 0 0 0 0 0 0 0 0 0 0 0 0 1 1 1 1 1 1 1 1 1 1 1 1 1 1 1 0 0 0 0 0 0 0 0
2 0 0 0 0 0 0 0 0 0 0 0 0 0 0 0 0 0 0 0 0 1 1 1 1 1 1 1 1 1 2 1 1 1 1 1 0 0 0 0 0 0 0
1 2 1 0 0 1 0 0 0 0 0 0 0 0 0 0 0 1 0 0 0 1 1 1 1 1 1 1 2 3 2 1 1 1 1 1 0 0 0 0 0 0 0
1 1 1 1 2 1 1 1 1 1 1 1 0 0 1 0 1 0 1 2 2 1 1 1 1 2 2 1 2 2 1 2 2 1 1 1 0 0 0 0 0 0 0
2 1 2 2 1 2 2 1 3 1 1 1 1 1 1 1 2 2 1 1 1 2 2 2 3 2 1 1 1 2 2 3 3 2 1 1 1 1 0 0 1 0 0
2 3 1 3 1 1 3 2 1 1 1 1 3 1 1 2 2 1 1 2 1 2 2 3 5 3 2 1 1 1 2 3 2 3 1 1 1 1 0 0 0 0 0
0 0 0 1 1 0 1 1 2 2 2 1 2 1 1 0 0 2 3 2 1 1 1 2 1 3 2 2 2 1 2 2 2 2 1 1 0 1 1 1 0 1 1
0 -0 1 -0 -1 1 3 2 3 2 1 1 1 1 0 0 0 0 1 2 2 1 1 1 2 4 4 3 1 1 2 2 2 2 1 1 0 0 1 1 0 1 1
1 1 0 1 1 2 2 2 1 1 1 1 1 2 1 1 0 0 0 0 1 2 3 2 2 2 2 3 2 1 0 1 1 1 1 1 0 0 1 0 0 1 0
3 1 3 2 1 2 2 2 2 2 1 0 0 0 1 1 1 0 0 0 0 0 0 0 0 1 2 2 1 1 0 0 0 0 1 0 1 0 0 0 0 1 0
4 4 3 3 3 1 2 1 1 1 1 1 1 0 0 0 0 0 0 0 0 0 0 0 0 0 1 1 0 0 0 0 0 0 0 0 0 0 1 1 1 0 0
6 5 4 2 1 1 1 1 1 1 1 1 1 0 0 0 0 0 0 0 0 0 0 0 0 0 0 0 0 0 0 0 -0 -0 0 0 0 0 0 0 1 0 0
1 3 1 1 1 1 1 1 0 0 1 0 1 1 0 0 0 0 0 0 0 0 0 0 0 0 0 0 0 0 0 0 0 0 0 0 0 0 0 0 0 0 0
1 1 1 1 0 0 0 0 0 1 0 1 0 1 0 0 0 0 0 0 0 0 0 0 0 0 0 0 0 0 1 0 0 0 0 0 0 0 0 0 0 0 0
1 1 1 1 1 0 0 1 0 0 0 0 0 0 0 0 0 0 0 0 0 0 0 0 0 0 0 0 0 0 0 0 0 0 0 0 0 0 0 0 0 0 0
1 1 1 0 0 0 0 1 1 0 0 1 1 0 0 0 0 0 0 0 0 0 0 0 0 0 0 0 0 0 0 0 0 0 0 0 0 0 0 0 0 0 0
1 1 0 0 0 0 0 0 0 0 0 0 0 0 0 0 0 0 0 0 0 0 0 0 0 0 0 0 0 0 0 0 0 0 -0 0 0 0 0 0 0 0 0
1 0 0 0 0 0 0 0 0 0 0 0 0 0 1 1 1 0 0 0 0 0 0 0 0 0 0 0 0 0 0 0 0 0 0 0 0 0 0 0 0 0 0
0 0 0 0 0 0 0 0 0 1 1 1 1 1 1 1 1 1 1 1 1 0 0 0 0 0 0 0 0 0 0 0 0 0 0 0 0 0 0 0 0 0 0
0 0 0 0 0 0 0 0 0 1 1 1 1 1 2 1 1 1 1 1 1 1 0 0 0 0 0 0 0 0 0 0 0 0 0 1 0 0 0 0 0 0 0
0 0 0 0 0 0 0 0 0 0 0 0 1 1 1 1 1 0 0 0 0 1 0 0 0 0 0 0 0 0 0 0 0 0 0 0 1 0 0 0 0 0 0
0 0 0 0 0 0 0 0 0 0 0 0 0 0 0 0 0 0 0 0 0 0 0 0 0 0 0 0 0 0 0 0 0 0 0 0 0 1 0 0 0 0 0
0 0 0 0 0 0 0 0 0 0 0 0 0 0 0 0 0 0 0 0 0 0 0 0 0 0 0 0 0 0 0 0 0 0 0 0 0 0 0 1 0 0 0
0 0 0 0 0 0 0 0 0 0 0 0 0 0 0 0 0 0 0 0 0 0 0 0 0 0 0 0 0 0 0 0 0 0 0 0 0 0 0 0 0 0 0
0 0 0 0 0 0 0 0 0 0 0 0 0 0 0 0 0 0 0 0 0 0 0 0 0 0 0 0 0 0 0 0 0 0 0 0 0 0 0 0 0 0 0
Wind_Speed_500mb
45 40 37 34 31 30 28 28 26 26 24 25 24 26 27 28 30 29 26 37 41 36 33 34 34 35 35 34 33 33 33 32 31 27 27 29 28 28 30 30 30 31 29
48 39 42 37 34 32 30 27 26 26 25 25 27 29 31 31 32 32 29 31 40 42 36 39 36 34 35 35 37 39 41 39 37 36 33 32 32 31 32 33 33 33 33
45 44 38 37 34 33 32 31 30 31 31 31 33 33 34 35 36 36 36 32 34 43 41 37 39 37 39 42 45 46 46 45 41 41 41 39 38 36 34 35 36 35 36
47 43 35 33 30 31 27 27 27 27 29 29 32 33 35 37 40 41 39 38 37 38 43 46 45 42 44 49 55 56 53 50 47 44 45 44 45 41 38 38 39 38 36
41 39 30 30 29 27 24 24 28 33 33 36 36 36 36 37 40 39 42 44 46 48 47 49 55 54 47 53 59 62 60 59 53 51 51 46 45 47 43 41 41 41 39
35 29 31 36 33 33 21 27 32 35 33 29 30 31 33 36 39 42 43 44 48 53 52 51 50 58 59 58 58 63 64 63 63 59 58 57 50 50 52 47 44 43 42
21 20 18 29 38 34 32 41 43 45 36 28 30 36 36 49 47 40 41 49 51 54 55 54 60 57 55 54 52 50 55 59 59 63 65 61 56 52 53 51 46 43 44
15 28 32 40 34 46 55 39 45 34 35 20 23 29 37 39 43 43 47 42 42 46 50 54 63 60 63 55 45 51 57 60 51 54 54 65 61 54 52 51 49 46 46
51 33 36 39 41 43 32 32 36 36 26 22 22 19 16 26 38 38 34 38 44 46 46 49 52 52 57 63 67 58 55 62 61 57 60 67 62 54 55 55 54 52 50
70 43 53 47 45 29 34 30 24 25 22 17 17 28 30 32 41 41 45 49 55 46 51 60 62 55 56 58 57 60 62 57 56 58 59 59 52 61 61 64 61 59 54
57 53 45 38 36 40 38 33 27 28 21 20 19 26 31 33 39 49 55 50 44 44 47 57 65 53 46 50 49 56 60 54 54 51 44 44 49 61 63 65 65 60 55
55 45 36 44 47 38 36 28 30 24 24 23 30 31 30 35 43 45 53 56 56 51 53 52 53 55 52 52 51 52 61 57 61 62 55 48 55 55 65 64 59 56 55
46 47 58 47 36 30 28 25 26 24 26 32 29 28 31 40 44 46 53 59 57 55 53 49 50 52 56 61 68 62 58 62 67 73 64 50 47 48 54 64 62 59 58
38 49 36 31 28 28 31 30 30 30 30 30 37 39 36 38 39 44 47 51 57 56 50 52 47 52 54 54 52 53 58 50 44 55 56 43 47 49 42 45 49 54 53
27 33 34 27 28 32 31 30 31 33 39 42 36 38 36 33 36 42 44 46 52 58 58 53 55 55 54 52 51 52 58 66 65 69 72 61 49 52 53 50 48 48 52
20 23 23 24 23 26 29 34 30 31 40 43 35 38 42 38 41 44 45 46 48 58 66 56 56 59 61 55 57 58 61 64 65 68 56 57 51 54 60 57 59 52 54
19 18 19 21 23 28 30 35 39 41 40 44 47 47 48 49 49 46 49 54 57 58 66 62 58 56 65 69 69 64 58 60 51 50 57 53 54 52 68 62 57 52 50
15 16 22 26 30 35 38 41 42 44 47 51 53 56 57 51 55 57 59 60 60 61 66 71 65 67 68 66 59 58 54 48 55 52 55 50 53 49 58 55 53 49 49
21 24 29 34 39 44 46 50 55 57 61 65 66 67 65 66 68 66 66 64 62 62 61 63 61 61 67 72 71 64 59 52 59 47 51 53 53 43 42 44 47 47 47
24 27 34 40 44 49 53 58 63 68 71 74 78 80 79 77 76 74 71 70 67 68 67 67 64 58 59 61 65 63 62 57 51 41 45 47 45 45 43 42 44 46 47
31 35 41 44 51 58 63 69 73 80 86 93 92 88 83 83 88 90 83 76 71 67 63 62 63 62 61 60 59 58 68 67 52 47 44 46 47 45 53 53 49 49 50
40 43 48 53 60 66 70 75 81 87 89 86 86 84 84 86 91 95 97 95 95 91 85 76 74 69 69 70 66 64 63 59 56 41 51 53 48 38 48 53 53 53 54
49 52 55 57 64 72 75 80 87 96 102 95 90 90 93 97 94 93 91 92 98 96 91 82 77 70 72 69 72 78 72 70 64 55 45 47 52 52 48 42 43 47 51
57 59 61 62 67 70 71 75 80 87 92 90 87 88 91 88 84 82 85 89 81 85 85 78 78 68 63 71 74 70 71 67 65 49 47 43 34 46 43 43 47 48 51
58 58 58 61 65 67 65 71 76 78 72 75 75 72 72 79 79 76 80 88 87 87 64 67 70 71 79 79 75 80 84 69 58 50 38 42 51 39 42 43 49 47 49
55 55 55 56 60 69 76 80 79 80 88 93 95 84 71 63 76 96 84 70 81 76 73 75 74 71 70 81 74 71 75 68 53 36 36 40 40 31 37 37 38 39 28
Wind_Direction_500mb
205 205 209 207 216 208 220 215 221 230 244 255 254 259 265 263 261 260 263 270 280 283 276 273 275 276 278 281 277 275 274 274 275 277 280 277 275 274 271 267 263 263 264
211 207 206 211 212 215 218 225 230 234 251 249 254 257 259 260 263 262 262 269 278 282 278 268 267 271 270 267 271 273 272 271 267 266 266 267 271 273 272 270 266 261 260
210 208 213 213 214 217 218 222 225 238 242 252 258 257 258 261 261 262 264 265 269 280 281 277 265 264 267 267 268 269 266 269 267 266 263 261 263 265 269 268 265 262 258
200 222 212 219 215 216 223 227 237 243 251 255 259 260 263 266 264 260 260 259 260 261 268 271 274 267 268 273 274 274 266 266 265 264 263 264 266 260 260 264 263 261 258
213 205 220 222 221 221 227 237 246 246 247 251 254 255 260 266 267 266 262 261 260 252 250 257 263 279 278 279 277 274 272 270 267 266 258 259 264 261 257 257 261 259 256
209 217 219 217 219 215 222 250 249 249 249 249 260 265 261 257 260 264 268 264 261 258 263 263 264 268 280 283 275 269 267 264 264 266 260 255 258 261 258 253 254 257 255
207 227 231 228 226 240 259 262 247 245 248 256 259 264 276 274 273 264 269 264 267 268 266 262 267 269 266 280 280 275 273 270 268 262 258 255 256 260 259 251 249 251 252
259 256 269 242 218 243 232 227 233 245 257 256 261 272 279 281 273 270 262 263 269 270 270 269 272 265 268 272 274 278 279 278 268 263 265 263 261 259 259 251 247 244 247
228 222 225 207 220 227 230 238 240 242 248 249 262 251 288 282 311 273 292 276 277 281 276 278 273 274 280 286 289 287 277 273 271 270 265 276 257 260 261 258 253 244 246
226 222 205 219 214 210 220 228 220 226 255 250 265 274 268 277 287 292 287 283 277 284 281 283 283 285 288 285 286 283 279 266 264 269 289 279 253 257 260 257 251 244 244
220 211 209 217 214 204 207 208 223 232 223 248 255 267 272 279 278 281 285 290 287 289 288 276 276 287 286 289 288 287 284 286 287 282 282 271 268 258 252 251 250 243 243
209 204 215 200 208 189 216 220 229 238 255 242 240 248 265 276 276 278 283 289 287 291 286 287 289 286 290 298 294 288 279 284 293 293 281 272 272 259 251 246 241 243 248
206 191 203 194 198 208 230 231 253 254 259 264 258 264 271 272 276 279 283 285 292 290 291 284 281 285 292 291 284 289 299 295 294 295 286 277 269 263 251 248 244 244 249
187 201 195 194 211 221 228 242 245 258 256 261 272 276 269 269 271 269 274 283 286 286 286 288 286 283 288 293 286 287 292 294 283 295 290 279 273 250 244 242 242 246 249
188 206 201 211 213 221 232 243 252 238 255 266 266 276 272 269 271 271 270 272 279 289 286 288 292 290 293 294 289 284 293 282 295 292 291 288 268 249 234 235 245 250 252
189 206 196 208 220 233 234 243 242 260 259 265 259 262 263 263 265 270 272 272 272 276 281 284 289 293 298 298 294 290 287 286 281 278 287 298 273 249 238 241 242 250 250
189 200 211 224 231 236 239 243 248 244 249 258 257 256 257 259 265 268 269 270 271 273 279 284 284 285 286 286 286 292 290 286 288 287 283 283 288 267 239 240 240 241 243
220 227 237 244 247 249 250 252 253 255 257 261 261 259 261 265 264 265 267 268 268 269 275 283 283 284 285 296 293 298 294 294 285 276 274 277 277 275 229 229 231 231 235
243 245 251 253 257 258 259 257 256 259 260 259 258 259 260 258 258 258 260 263 268 273 274 278 282 283 283 282 289 289 293 291 293 284 280 273 266 249 233 226 230 230 231
261 261 261 260 261 261 261 262 262 263 264 262 259 258 256 255 257 259 260 260 263 267 269 273 276 282 285 285 285 283 289 285 283 280 271 272 274 252 230 226 233 238 241
275 271 269 268 265 264 266 267 265 265 265 263 261 260 260 259 258 256 257 258 258 261 262 270 277 283 286 287 285 286 290 291 287 283 266 270 262 251 235 226 231 238 242
276 274 270 269 268 265 267 265 263 265 264 264 266 266 264 263 261 261 261 259 256 255 257 264 271 276 281 282 283 281 279 283 281 278 274 260 260 246 245 238 236 241 244
277 277 277 275 272 268 268 266 264 264 266 269 269 269 267 264 265 265 265 262 260 255 255 257 261 266 275 277 275 272 279 282 283 280 281 269 246 247 235 236 238 247 251
283 281 279 277 276 275 275 274 274 271 271 272 271 269 267 267 264 264 266 262 263 257 249 251 256 260 273 285 282 275 275 278 282 268 276 260 257 253 236 232 247 247 253
286 285 285 284 283 283 280 276 274 273 272 271 271 266 261 259 255 255 259 263 264 255 253 241 249 266 278 280 277 273 272 276 272 268 264 241 238 240 232 234 241 249 258
290 289 286 281 277 274 269 271 272 274 274 270 269 278 279 277 273 258 256 259 258 254 255 255 261 267 271 276 274 265 263 263 245 264 234 225 201 215 235 235 238 244 253
Wind_Speed_850mb
45 40 37 34 31 30 28 28 26 26 24 25 24 26 27 28 30 29 26 37 41 36 33 34 34 35 35 34 33 33 33 32 31 27 27 29 28 28 30 30 30 31 29
48 39 42 37 34 32 30 27 26 26 25 25 27 29 31 31 32 32 29 31 40 42 36 39 36 34 35 35 37 39 41 39 37 36 33 32 32 31 32 33 33 33 33
45 44 38 37 34 33 32 31 30 31 31 31 33 33 34 35 36 36 36 32 34 43 41 37 39 37 39 42 45 46 46 45 41 41 41 39 38 36 34 35 36 35 36
47 43 35 33 30 31 27 27 27 27 29 29 32 33 35 37 40 41 39 38 37 38 43 46 45 42 44 49 55 56 53 50 47 44 45 44 45 41 38 38 39 38 36
41 39 30 30 29 27 24 24 28 33 33 36 36 36 36 37 40 39 42 44 46 48 47 49 55 54 47 53 59 62 60 59 53 51 51 46 45 47 43 41 41 41 39
35 29 31 36 33 33 21 27 32 35 33 29 30 31 33 36 39 42 43 44 48 53 52 51 50 58 59 58 58 63 64 63 63 59 58 57 50 50 52 47 44 43 42
21 20 18 29 38 34 32 41 43 45 36 28 30 36 36 49 47 40 41 49 51 54 55 54 60 57 55 54 52 50 55 59 59 63 65 61 56 52 53 51 46 43 44
15 28 32 40 34 46 55 39 45 34 35 20 23 29 37 39 43 43 47 42 42 46 50 54 63 60 63 55 45 51 57 60 51 54 54 65 61 54 52 51 49 46 46
51 33 36 39 41 43 32 32 36 36 26 22 22 19 16 26 38 38 34 38 44 46 46 49 52 52 57 63 67 58 55 62 61 57 60 67 62 54 55 55 54 52 50
70 43 53 47 45 29 34 30 24 25 22 17 17 28 30 32 41 41 45 49 55 46 51 60 62 55 56 58 57 60 62 57 56 58 59 59 52 61 61 64 61 59 54
57 53 45 38 36 40 38 33 27 28 21 20 19 26 31 33 39 49 55 50 44 44 47 57 65 53 46 50 49 56 60 54 54 51 44 44 49 61 63 65 65 60 55
55 45 36 44 47 38 36 28 30 24 24 23 30 31 30 35 43 45 53 56 56 51 53 52 53 55 52 52 51 52 61 57 61 62 55 48 55 55 65 64 59 56 55
46 47 58 47 36 30 28 25 26 24 26 32 29 28 31 40 44 46 53 59 57 55 53 49 50 52 56 61 68 62 58 62 67 73 64 50 47 48 54 64 62 59 58
38 49 36 31 28 28 31 30 30 30 30 30 37 39 36 38 39 44 47 51 57 56 50 52 47 52 54 54 52 53 58 50 44 55 56 43 47 49 42 45 49 54 53
27 33 34 27 28 32 31 30 31 33 39 42 36 38 36 33 36 42 44 46 52 58 58 53 55 55 54 52 51 52 58 66 65 69 72 61 49 52 53 50 48 48 52
20 23 23 24 23 26 29 34 30 31 40 43 35 38 42 38 41 44 45 46 48 58 66 56 56 59 61 55 57 58 61 64 65 68 56 57 51 54 60 57 59 52 54
19 18 19 21 23 28 30 35 39 41 40 44 47 47 48 49 49 46 49 54 57 58 66 62 58 56 65 69 69 64 58 60 51 50 57 53 54 52 68 62 57 52 50
15 16 22 26 30 35 38 41 42 44 47 51 53 56 57 51 55 57 59 60 60 61 66 71 65 67 68 66 59 58 54 48 55 52 55 50 53 49 58 55 53 49 49
21 24 29 34 39 44 46 50 55 57 61 65 66 67 65 66 68 66 66 64 62 62 61 63 61 61 67 72 71 64 59 52 59 47 51 53 53 43 42 44 47 47 47
24 27 34 40 44 49 53 58 63 68 71 74 78 80 79 77 76 74 71 70 67 68 67 67 64 58 59 61 65 63 62 57 51 41 45 47 45 45 43 42 44 46 47
31 35 41 44 51 58 63 69 73 80 86 93 92 88 83 83 88 90 83 76 71 67 63 62 63 62 61 60 59 58 68 67 52 47 44 46 47 45 53 53 49 49 50
40 43 48 53 60 66 70 75 81 87 89 86 86 84 84 86 91 95 97 95 95 91 85 76 74 69 69 70 66 64 63 59 56 41 51 53 48 38 48 53 53 53 54
49 52 55 57 64 72 75 80 87 96 102 95 90 90 93 97 94 93 91 92 98 96 91 82 77 70 72 69 72 78 72 70 64 55 45 47 52 52 48 42 43 47 51
57 59 61 62 67 70 71 75 80 87 92 90 87 88 91 88 84 82 85 89 81 85 85 78 78 68 63 71 74 70 71 67 65 49 47 43 34 46 43 43 47 48 51
58 58 58 61 65 67 65 71 76 78 72 75 75 72 72 79 79 76 80 88 87 87 64 67 70 71 79 79 75 80 84 69 58 50 38 42 51 39 42 43 49 47 49
55 55 55 56 60 69 76 80 79 80 88 93 95 84 71 63 76 96 84 70 81 76 73 75 74 71 70 81 74 71 75 68 53 36 36 40 40 31 37 37 38 39 28
Wind_Direction_850mb
205 205 209 207 216 208 220 215 221 230 244 255 254 259 265 263 261 260 263 270 280 283 276 273 275 276 278 281 277 275 274 274 275 277 280 277 275 274 271 267 263 263 264
211 207 206 211 212 215 218 225 230 234 251 249 254 257 259 260 263 262 262 269 278 282 278 268 267 271 270 267 271 273 272 271 267 266 266 267 271 273 272 270 266 261 260
210 208 213 213 214 217 218 222 225 238 242 252 258 257 258 261 261 262 264 265 269 280 281 277 265 264 267 267 268 269 266 269 267 266 263 261 263 265 269 268 265 262 258
200 222 212 219 215 216 223 227 237 243 251 255 259 260 263 266 264 260 260 259 260 261 268 271 274 267 268 273 274 274 266 266 265 264 263 264 266 260 260 264 263 261 258
213 205 220 222 221 221 227 237 246 246 247 251 254 255 260 266 267 266 262 261 260 252 250 257 263 279 278 279 277 274 272 270 267 266 258 259 264 261 257 257 261 259 256
209 217 219 217 219 215 222 250 249 249 249 249 260 265 261 257 260 264 268 264 261 258 263 263 264 268 280 283 275 269 267 264 264 266 260 255 258 261 258 253 254 257 255
207 227 231 228 226 240 259 262 247 245 248 256 259 264 276 274 273 264 269 264 267 268 266 262 267 269 266 280 280 275 273 270 268 262 258 255 256 260 259 251 249 251 252
259 256 269 242 218 243 232 227 233 245 257 256 261 272 279 281 273 270 262 263 269 270 270 269 272 265 268 272 274 278 279 278 268 263 265 263 261 259 259 251 247 244 247
228 222 225 207 220 227 230 238 240 242 248 249 262 251 288 282 311 273 292 276 277 281 276 278 273 274 280 286 289 287 277 273 271 270 265 276 257 260 261 258 253 244 246
226 222 205 219 214 210 220 228 220 226 255 250 265 274 268 277 287 292 287 283 277 284 281 283 283 285 288 285 286 283 279 266 264 269 289 279 253 257 260 257 251 244 244
220 211 209 217 214 204 207 208 223 232 223 248 255 267 272 279 278 281 285 290 287 289 288 276 276 287 286 289 288 287 284 286 287 282 282 271 268 258 252 251 250 243 243
209 204 215 200 208 189 216 220 229 238 255 242 240 248 265 276 276 278 283 289 287 291 286 287 289 286 290 298 294 288 279 284 293 293 281 272 272 259 251 246 241 243 248
206 191 203 194 198 208 230 231 253 254 259 264 258 264 271 272 276 279 283 285 292 290 291 284 281 285 292 291 284 289 299 295 294 295 286 277 269 263 251 248 244 244 249
187 201 195 194 211 221 228 242 245 258 256 261 272 276 269 269 271 269 274 283 286 286 286 288 286 283 288 293 286 287 292 294 283 295 290 279 273 250 244 242 242 246 249
188 206 201 211 213 221 232 243 252 238 255 266 266 276 272 269 271 271 270 272 279 289 286 288 292 290 293 294 289 284 293 282 295 292 291 288 268 249 234 235 245 250 252
189 206 196 208 220 233 234 243 242 260 259 265 259 262 263 263 265 270 272 272 272 276 281 284 289 293 298 298 294 290 287 286 281 278 287 298 273 249 238 241 242 250 250
189 200 211 224 231 236 239 243 248 244 249 258 257 256 257 259 265 268 269 270 271 273 279 284 284 285 286 286 286 292 290 286 288 287 283 283 288 267 239 240 240 241 243
220 227 237 244 247 249 250 252 253 255 257 261 261 259 261 265 264 265 267 268 268 269 275 283 283 284 285 296 293 298 294 294 285 276 274 277 277 275 229 229 231 231 235
243 245 251 253 257 258 259 257 256 259 260 259 258 259 260 258 258 258 260 263 268 273 274 278 282 283 283 282 289 289 293 291 293 284 280 273 266 249 233 226 230 230 231
261 261 261 260 261 261 261 262 262 263 264 262 259 258 256 255 257 259 260 260 263 267 269 273 276 282 285 285 285 283 289 285 283 280 271 272 274 252 230 226 233 238 241
275 271 269 268 265 264 266 267 265 265 265 263 261 260 260 259 258 256 257 258 258 261 262 270 277 283 286 287 285 286 290 291 287 283 266 270 262 251 235 226 231 238 242
276 274 270 269 268 265 267 265 263 265 264 264 266 266 264 263 261 261 261 259 256 255 257 264 271 276 281 282 283 281 279 283 281 278 274 260 260 246 245 238 236 241 244
277 277 277 275 272 268 268 266 264 264 266 269 269 269 267 264 265 265 265 262 260 255 255 257 261 266 275 277 275 272 279 282 283 280 281 269 246 247 235 236 238 247 251
283 281 279 277 276 275 275 274 274 271 271 272 271 269 267 267 264 264 266 262 263 257 249 251 256 260 273 285 282 275 275 278 282 268 276 260 257 253 236 232 247 247 253
286 285 285 284 283 283 280 276 274 273 272 271 271 266 261 259 255 255 259 263 264 255 253 241 249 266 278 280 277 273 272 276 272 268 264 241 238 240 232 234 241 249 258
290 289 286 281 277 274 269 271 272 274 274 270 269 278 279 277 273 258 256 259 258 254 255 255 261 267 271 276 274 265 263 263 245 264 234 225 201 215 235 235 238 244 253